Lid_Strength_Index
0 -1 -1 -1 -1 -1 -1 -1 -2 -2 -2 -2 -2 -2 -2 -2 -2 -2 -2 -2 -2 -2 -2 -2 -2 -2 -2 -2 -2 -2 -2 -2 -2 -2 -2 -2 -2 -2 -2 -2 -2 -1 -2
-0 -1 -1 -1 -1 -1 -2 -2 -2 -2 -2 -2 -2 -2 -2 -2 -2 -2 -2 -2 -2 -2 -2 -2 -2 -2 -2 -2 -1 -2 -2 -2 -2 -2 -2 -2 -2 -2 -2 -2 -2 -2 -2
-0 -1 -1 -1 -1 -1 -1 -2 -2 -2 -2 -2 -2 -2 -2 -2 -2 -2 -2 -3 -2 -2 -2 -2 -2 -2 -2 -1 -1 -1 -2 -2 -2 -2 -2 -1 -2 -2 -2 -2 -2 -2 -2
-1 -1 -1 -1 -1 -1 -1 -2 -2 -2 -2 -2 -1 -1 -2 -2 -2 -2 -2 -3 -2 -2 -2 -2 -2 -1 -2 -2 -1 -2 -2 -2 -2 -1 -1 -1 -1 -1 -1 -2 -2 -2 -1
-0 -1 -1 -1 -2 -1 -1 -2 -2 -2 -2 -2 -1 -1 -2 -2 -2 -2 -2 -2 -2 -2 -2 -2 -2 -1 -1 -1 -1 -2 -2 -2 -1 -1 -1 -1 -1 -1 -1 -1 -1 -1 -1
-0 -1 -1 -1 -2 -1 -1 -1 -1 -2 -2 -2 -2 -2 -2 -2 -2 -2 -2 -2 -2 -2 -2 -2 -1 -1 -1 -1 -2 -2 -2 -2 -1 -1 -1 -1 -1 -1 -1 -1 -0 -0 -1
-0 -1 -1 -1 -1 -2 -2 -1 -2 -2 -2 -2 -2 -2 -2 -2 -2 -2 -2 -2 -2 -2 -2 -1 -1 -1 -1 -1 -1 -1 -2 -2 -1 -0 -1 -1 -1 -1 -1 -1 -0 -0 -0
-0 -1 -1 1 -0 -1 -1 -2 -2 -2 -2 -2 -2 -2 -2 -2 -2 -2 -2 -2 -2 -2 -2 -1 -1 -1 -1 -1 -1 -1 -1 -2 -0 -1 -1 -1 -1 -1 -1 -0 -0 -0 0
-1 -1 -1 -1 -0 1 -0 -1 -1 -2 -2 -2 -2 -2 -2 -2 -3 -2 -2 -2 -2 -2 -1 -1 -1 -1 -1 -1 -1 -1 -1 -1 -1 -1 -0 -1 -1 -1 -1 -0 -0 -0 -0
-0 -0 -1 -1 -1 -1 -1 1 0 -1 -1 -1 -1 -1 -1 -1 -1 -2 -2 -2 -2 -2 -2 -2 -1 -1 -1 -1 -1 -1 -1 -1 -1 -1 -1 -1 -1 -1 -1 -1 -1 -0 -0
1 0 -0 -1 -1 -1 -1 -0 1 1 0 -0 -0 0 -0 -1 -1 -1 -0 -1 -2 -2 -3 -2 -2 -2 -2 -2 -1 -1 -0 -1 -1 -1 -1 -0 -2 -2 -2 -1 -1 -1 -1
2 1 0 -0 -0 -1 -1 -1 -1 -1 -1 -1 -1 -1 -1 -1 -1 -0 1 1 -1 -1 -2 -2 -2 -1 -1 -1 -1 0 -0 -1 -0 -1 -1 -1 -2 -2 -2 -2 -1 -1 -1
1 1 1 0 -0 -0 -1 -1 -1 -1 -1 -1 -0 -1 -1 -1 -1 -0 -0 -0 -0 1 -1 -1 -1 -1 -1 -1 -1 -0 0 -0 -1 -1 -1 -1 -2 -2 -2 -2 -2 -1 -1
2 1 0 0 1 0 -0 -1 -1 0 -0 -0 -0 -0 0 -0 0 0 -0 0 0 0 0 -0 -0 -1 -0 0 -0 -0 0 0 -0 -0 -0 1 -1 -2 -2 -2 -2 -2 -1
3 2 1 0 1 1 1 -0 -0 0 1 -0 -0 0 0 1 1 1 1 0 0 1 1 0 0 0 0 0 1 1 1 1 1 1 1 3 1 -1 -2 -2 -2 -2 -2
2 1 1 1 0 0 1 0 0 0 -0 -0 0 -0 0 0 1 2 1 1 1 1 0 0 0 0 0 0 1 1 2 2 2 1 1 1 2 0 -1 -2 -2 -2 -2
1 1 1 1 0 0 0 0 0 0 0 -0 -0 -0 0 0 1 1 2 2 1 1 1 1 1 1 1 1 1 1 1 2 2 2 1 1 1 2 1 -1 -1 -2 -2
1 1 1 0 0 0 -0 0 0 0 0 0 -0 -0 0 0 1 1 1 1 1 2 2 2 2 2 2 1 1 1 1 1 1 1 1 1 2 2 2 1 -1 -1 -1
4 2 1 0 0 0 0 -0 0 0 0 0 0 -0 0 0 1 1 1 1 1 2 2 2 2 2 2 2 2 2 2 2 2 2 1 1 1 1 1 2 1 1 -1
5 5 3 1 0 0 0 1 1 1 1 0 0 0 -0 -0 -0 0 1 1 1 2 2 2 2 2 2 2 3 3 2 2 2 2 2 1 1 1 1 1 2 2 1
6 6 5 1 1 0 1 2 2 3 2 2 0 0 0 -0 -0 0 0 1 1 2 2 2 2 3 3 3 4 3 3 2 3 2 2 1 1 1 1 2 2 1 1
8 7 4 1 1 1 1 1 1 2 2 2 1 1 0 -0 -0 -0 -0 0 0 2 2 2 3 3 3 2 4 5 5 3 3 2 2 2 2 2 2 2 2 2 2
9 8 7 7 6 6 2 1 1 1 1 2 2 2 1 1 1 0 0 0 0 1 1 1 2 2 3 2 3 3 6 7 5 3 3 2 2 1 2 2 2 2 2
9 8 8 7 7 7 8 4 2 2 3 2 2 1 1 1 1 1 1 1 1 1 1 1 0 1 2 3 3 3 2 2 5 6 4 4 3 2 2 2 2 3 3
10 9 9 9 9 8 7 7 7 7 7 6 5 4 3 2 -1 -1 -0 -0 0 0 0 0 1 1 2 2 2 2 3 3 3 4 6 4 5 3 3 2 2 2 3
11 10 10 10 10 9 8 8 7 7 6 6 6 5 4 2 1 1 1 0 -0 0 1 0 0 1 1 2 2 2 2 4 4 5 5 4 4 3 4 3 3 3 3